Location: Agadir Irigdalene
(31.2522°N, 8.7797°W)
Time: 05:34:31
(UTC+00:00)

NOAA 12 - Pass Details

Date: 01 December 2020
Orbit: 795 x 815 km, 98.5° (Epoch: 25 January)

Event Time Altitude Azimuth Distance (km) Brightness Sun altitude
Rises 17:48:04 0° 154° (SSE) 3,325 7.3 -3.9°
Reaches altitude 10° 17:50:26 10° 150° (SSE) 2,397 6.5 -4.4°
Maximum altitude 17:55:36 54° 74° (ENE) 983 4.3 -5.4°
Drops below altitude 10° 18:00:46 10° 358° (N) 2,404 6.4 -6.4°
Sets 18:03:09 0° 354° (N) 3,337 7.1 -6.9°
